sat.trackr.live / text

‹ back to catalog

STARLINK-11681 [DTC]

NORAD 63755 · 2025-089E

PAYLOAD ACTIVE UNKNOWN

§ Identity

Operator
Country
US
Launch date
2025-04-29
Launch site
AFETR
Launch vehicle
Mass (kg)
RCS (m²)

Purposes: comms

External: N2YO · Heavens-Above · Gunter

§ Orbital elements

Epoch: 2026-09-20T18:26:13.393248Z

Period
91.67 min
Inclination
43.0006°
Eccentricity
0.0002203
Mean motion
15.70927109 rev/d
Perigee alt
354.8 km
Apogee alt
357.7 km
Semi-major
6,734.4 km
B*
1.3006e-3
RAAN
196.6117°
Arg perigee
246.9900°
Mean anomaly
113.0735°
Rev number
8,081

§ Raw data

STARLINK-11681 [DTC]1 63755U 25089E   26263.76821057  .00170539  00000+0  13006-2 0  99912 63755  43.0006 196.6117 0002203 246.9900 113.0735 15.70927109 80817

JSON: /api/v1/satellites/63755 · /tle

For live sub-satellite position, see the globe view (requires WebGL).

§ Visibility from observer

Set your observer location to see the next 7 days of passes ≥ 10°. The values pass through the URL so the page stays shareable.

No JS? Fill the form by hand. The geolocation button needs JavaScript.